KE7JVX-3 Weather Reports


time (UTC)temp
F
wind
direction
speed
knots
gust
knots
rain 1hr
in
rain 24hr
in
rain mn
in
humidity
%
barometer
mb
20260905022409 59 272 7.8 15.6 0.00 0.05 0.00 47 1015.7
20260905021408 59 262 7.8 14.8 0.00 0.05 0.00 47 1015.6
20260905020407 59 273 8.7 13.0 0.00 0.05 0.00 47 1015.6
20260905015407 59 287 4.3 11.3 0.00 0.05 0.00 47 1015.6
20260905014407 60 296 0.9 11.3 0.00 0.05 0.00 47 1015.6
20260905013407 60 275 6.1 11.3 0.00 0.05 0.00 45 1015.6
20260905012408 61 284 3.5 15.6 0.00 0.05 0.00 45 1015.5
20260905011407 62 269 3.5 11.3 0.00 0.05 0.00 44 1015.5
20260905010407 62 308 4.3 13.0 0.00 0.05 0.00 44 1015.5
20260905005410 61 296 3.5 13.0 0.00 0.05 0.00 44 1015.5
20260905004408 62 238 0.9 15.6 0.00 0.05 0.00 44 1015.4
20260905003407 62 290 7.0 16.5 0.00 0.05 0.00 43 1015.4
20260905002408 63 281 9.6 16.5 0.00 0.05 0.00 41 1015.3
20260905001407 64 258 6.1 13.9 0.00 0.05 0.00 42 1015.4
20260905000409 62 274 6.1 10.4 0.00 0.05 0.00 42 1015.4
20260904235407 62 282 3.5 13.9 0.00 0.05 0.00 42 1015.6
20260904234407 64 276 7.8 14.8 0.00 0.05 0.00 42 1015.7
20260904233407 64 268 7.8 13.0 0.00 0.05 0.00 41 1015.6
20260904232407 63 263 5.2 17.4 0.00 0.05 0.00 41 1015.7
20260904230909 63 294 7.0 11.3 0.00 0.05 0.05 38 1015.7
20260904225907 64 266 6.1 14.8 0.00 0.05 0.05 38 1015.8
20260904224907 64 255 6.1 12.2 0.00 0.05 0.05 37 1015.8
20260904223908 64 279 6.1 13.0 0.00 0.05 0.05 38 1015.7
20260904222909 63 259 2.6 14.8 0.00 0.05 0.05 42 1015.8
20260904221007 64 265 8.7 17.4 0.00 0.05 0.05 39 1015.9
20260904220006 64 256 6.1 11.3 0.00 0.05 0.05 44 1016.0
20260904215014 63 239 7.0 17.4 0.00 0.05 0.05 43 1016.1
20260904214006 63 222 2.6 11.3 0.00 0.05 0.05 45 1016.1
20260904213007 63 246 7.0 20.9 0.00 0.05 0.05 38 1016.1
20260904212008 62 262 7.0 14.8 0.00 0.05 0.05 47 1016.2
20260904211006 62 258 8.7 16.5 0.00 0.05 0.05 47 1016.2
20260904210006 63 272 7.0 13.0 0.00 0.05 0.05 48 1016.4
20260904205006 62 263 4.3 14.8 0.00 0.05 0.05 48 1016.5
20260904204007 61 260 5.2 12.2 0.00 0.05 0.05 52 1016.5
20260904203006 62 262 4.3 13.9 0.00 0.05 0.05 50 1016.5
20260904202006 61 280 7.0 14.8 0.00 0.05 0.05 48 1016.6
20260904201006 62 254 5.2 12.2 0.00 0.05 0.05 51 1016.6
20260904200006 61 273 4.3 11.3 0.00 0.05 0.05 53 1016.7
20260904195006 61 254 4.3 12.2 0.00 0.05 0.05 48 1016.8
20260904194006 61 275 4.3 12.2 0.00 0.05 0.05 44 1016.9
20260904193008 61 254 5.2 13.0 0.00 0.05 0.05 40 1016.9
20260904192007 61 262 4.3 9.6 0.00 0.05 0.05 46 1017.1
20260904191006 60 250 1.7 13.0 0.00 0.05 0.05 41 1017.0
20260904190007 61 243 4.3 12.2 0.00 0.05 0.05 55 1017.1
20260904185006 61 287 3.5 8.7 0.00 0.05 0.05 45 1017.2
20260904184006 60 254 2.6 11.3 0.00 0.05 0.05 50 1017.3
20260904183006 60 267 3.5 10.4 0.00 0.05 0.05 60 1017.2
20260904182006 59 252 3.5 8.7 0.00 0.05 0.05 60 1017.3
20260904181006 58 277 5.2 9.6 0.00 0.05 0.05 59 1017.4
20260904180008 58 269 3.5 9.6 0.00 0.05 0.05 65 1017.4
20260904175006 58 263 6.1 11.3 0.00 0.05 0.05 72 1017.5
20260904174009 57 242 2.6 7.8 0.00 0.05 0.05 73 1017.5
20260904173006 56 212 3.5 9.6 0.00 0.05 0.05 75 1017.4
20260904172007 55 267 7.0 10.4 0.00 0.05 0.05 76 1017.4
20260904171006 55 262 6.1 13.0 0.00 0.05 0.05 78 1017.3
20260904170006 55 256 4.3 10.4 0.00 0.05 0.05 78 1017.2
20260904165006 54 256 6.1 12.2 0.00 0.05 0.05 78 1017.1
20260904164007 54 262 6.1 11.3 0.00 0.05 0.05 79 1017.1
20260904163006 53 266 10.4 13.9 0.00 0.05 0.05 79 1016.9
20260904162006 54 276 4.3 12.2 0.00 0.05 0.05 79 1016.8
20260904161006 54 278 7.8 11.3 0.00 0.05 0.05 79 1016.8
20260904160006 53 278 7.0 12.2 0.00 0.05 0.05 79 1016.8
20260904155006 53 266 7.0 13.0 0.00 0.05 0.05 79 1016.7
20260904154006 54 249 3.5 13.9 0.00 0.05 0.05 79 1016.7
20260904153006 53 269 5.2 13.0 0.00 0.05 0.05 79 1016.6
20260904152006 53 270 5.2 14.8 0.00 0.05 0.05 79 1016.5
20260904151006 53 268 7.8 13.9 0.00 0.05 0.05 79 1016.4
20260904150007 53 266 12.2 16.5 0.00 0.05 0.05 79 1016.3
20260904145007 53 266 8.7 19.1 0.00 0.05 0.05 79 1016.3
20260904144007 54 270 7.8 15.6 0.00 0.05 0.05 79 1016.2
20260904143006 54 255 10.4 18.2 0.00 0.05 0.05 79 1016.1
20260904142006 53 260 13.0 20.0 0.00 0.05 0.05 79 1016.0
20260904141006 53 271 9.6 17.4 0.00 0.05 0.05 79 1016.0
20260904140006 53 276 11.3 16.5 0.00 0.05 0.05 79 1015.8
20260904135006 53 262 7.8 14.8 0.00 0.05 0.05 79 1015.7
20260904134006 53 279 7.8 15.6 0.00 0.05 0.05 79 1015.7
20260904133007 53 276 10.4 17.4 0.00 0.05 0.05 79 1015.6
20260904132006 53 261 7.8 16.5 0.00 0.05 0.05 79 1015.5
20260904131006 53 250 8.7 16.5 0.00 0.05 0.05 79 1015.4
20260904130007 53 254 8.7 15.6 0.00 0.05 0.05 79 1015.2
20260904125006 54 250 9.6 15.6 0.00 0.05 0.05 79 1015.1
20260904124006 53 253 8.7 19.1 0.00 0.05 0.05 79 1015.1
20260904123006 54 244 8.7 18.2 0.00 0.05 0.05 79 1014.9
20260904122009 54 260 10.4 18.2 0.00 0.05 0.05 78 1014.8
20260904121006 55 252 10.4 20.9 0.00 0.05 0.05 79 1014.8
20260904120006 54 263 13.0 21.7 0.00 0.05 0.05 78 1014.8
20260904115006 54 246 10.4 18.2 0.00 0.05 0.05 78 1014.8
20260904114006 55 258 11.3 17.4 0.00 0.05 0.05 79 1014.8
20260904113006 55 261 12.2 20.0 0.00 0.05 0.05 79 1014.8
20260904112006 55 247 9.6 18.2 0.00 0.05 0.05 78 1014.8
20260904111006 55 251 12.2 21.7 0.00 0.05 0.05 78 1014.8
20260904110006 55 267 14.8 22.6 0.00 0.05 0.05 78 1014.7
20260904104907 55 255 16.5 23.5 0.00 0.05 0.05 78 1014.6
20260904103907 55 261 16.5 24.3 0.00 0.05 0.05 78 1014.5
20260904102907 55 263 16.5 23.5 0.00 0.05 0.05 78 1014.6
20260904101907 55 262 14.8 22.6 0.00 0.05 0.05 78 1014.6
20260904100907 55 256 15.6 23.5 0.00 0.05 0.05 78 1014.5
20260904095908 55 266 17.4 22.6 0.00 0.05 0.05 78 1014.5
20260904094907 55 261 14.8 23.5 0.00 0.05 0.05 78 1014.5
20260904093907 55 263 13.9 22.6 0.00 0.05 0.05 78 1014.5
20260904092909 55 262 13.9 18.2 0.00 0.05 0.05 78 1014.5
20260904091907 55 260 12.2 22.6 0.00 0.05 0.05 78 1014.6
20260904090907 55 265 13.0 20.9 0.00 0.05 0.05 78 1014.6
20260904085909 55 262 14.8 20.9 0.00 0.05 0.05 78 1014.5
20260904084907 55 268 14.8 22.6 0.00 0.05 0.05 78 1014.7
20260904083907 55 263 15.6 23.5 0.00 0.05 0.05 78 1014.8
20260904082907 55 261 14.8 21.7 0.00 0.05 0.05 78 1014.8
20260904081907 55 260 13.9 23.5 0.00 0.05 0.05 78 1014.9
20260904080908 55 266 14.8 23.5 0.00 0.05 0.05 78 1014.9
20260904075907 55 259 12.2 19.1 0.00 0.05 0.05 78 1015.2
20260904074907 55 262 13.0 19.1 0.05 0.05 0.05 77 1015.3
20260904073907 55 260 11.3 20.0 0.05 0.05 0.05 77 1015.3
20260904072907 55 262 10.4 18.2 0.05 0.05 0.05 77 1015.3
20260904071907 55 257 9.6 15.6 0.05 0.05 0.05 77 1015.4
20260904070907 55 256 11.3 17.4 0.05 0.05 0.05 77 1015.4
20260904065907 54 275 10.4 22.6 0.05 0.05 0.05 77 1015.4
20260904064907 54 268 11.3 18.2 0.00 0.00 0.00 77 1015.2
20260904063907 55 248 9.6 19.1 0.00 0.00 0.00 76 1015.3
20260904062907 55 249 11.3 16.5 0.00 0.00 0.00 76 1015.2
20260904061907 55 242 11.3 16.5 0.00 0.00 0.00 75 1015.1
20260904060907 55 241 8.7 14.8 0.00 0.00 0.00 74 1015.1
20260904055907 55 251 10.4 18.2 0.00 0.00 0.00 74 1015.1
20260904054907 55 249 9.6 14.8 0.00 0.00 0.00 73 1015.1
20260904053908 55 254 11.3 16.5 0.00 0.00 0.00 72 1015.2
20260904052908 56 248 9.6 13.9 0.00 0.00 0.00 68 1015.2
20260904051907 56 244 7.0 11.3 0.00 0.00 0.00 66 1015.3
20260904050907 57 246 6.1 10.4 0.00 0.00 0.00 64 1015.3
20260904045907 57 244 7.8 12.2 0.00 0.00 0.00 62 1015.2
20260904044907 57 236 5.2 7.8 0.00 0.00 0.00 63 1015.3
20260904043909 57 234 5.2 7.8 0.00 0.00 0.00 62 1015.3
20260904042907 56 232 4.3 7.8 0.00 0.00 0.00 69 1015.3
20260904041907 55 214 5.2 8.7 0.00 0.00 0.00 73 1015.4
20260904040908 56 228 3.5 7.8 0.00 0.00 0.00 71 1015.4
20260904035907 57 235 3.5 9.6 0.00 0.00 0.00 68 1015.4
20260904034907 57 230 5.2 7.8 0.00 0.00 0.00 65 1015.3
20260904033908 57 238 4.3 8.7 0.00 0.00 0.00 63 1015.2
20260904032907 57 245 7.0 10.4 0.00 0.00 0.00 61 1015.1
20260904031908 57 243 7.0 12.2 0.00 0.00 0.00 60 1015.1
20260904030910 57 256 4.3 11.3 0.00 0.00 0.00 60 1015.0
20260904025907 58 252 6.1 9.6 0.00 0.00 0.00 60 1014.9
20260904024907 58 250 6.1 10.4 0.00 0.00 0.00 59 1014.8
20260904023907 58 255 7.0 12.2 0.00 0.00 0.00 58 1014.7
20260904022907 58 258 6.1 12.2 0.00 0.00 0.00 58 1014.6